www.pogodaiklimat.ru

Погода и климат >> Архив погоды >> Пакистан >> Мохенджо-Даро


ПОГОДА в Мохенджо-Даро

  • Прогноз погоды в Мохенджо-Даро
  • Монитор погоды в Мохенджо-Даро

АРХИВ ПОГОДЫ в Мохенджо-Даро

Время (UTC), дата Ветер
(напр.,м/с)
 
Видим.   Явления Облачность Т
(С)
Тd
(С)
f
(%)
Тe
(С)
Тes
(С)
Комфортность P
(гПа)
Po
(гПа)
Тmin
(С)
Tmax
(С)
R
(мм)
R24
(мм)
S
(см)
03 9.07 ЮВ 2 4000 м ясно +32.5 +24.8 64 +46 +51 опасность
перегрева
990.2 984.6 +29.0
06 9.07 ЮВ 2 4000 м ясно +39.5 +25.8 46 +54 +73 опасность
перегрева
989.9 983.8
09 9.07 ЮВ 2 4000 м ясно +45.0 +25.2 33 +57 +76 опасность
перегрева
988.4 982.4
12 9.07 ЮВ 6 4000 м ясно +45.0 +24.3 32 +56 +58 опасность
перегрева
987.0 981.7 +46.0
15 9.07 ЮВ 3 4000 м ясно +38.5 +25.4 48 +53 +53 опасность
перегрева
987.7 981.5
18 9.07 ЮВ 6 4000 м ясно +34.5 +23.9 54 +46 +46 опасность
перегрева
989.8 983.6
21 9.07 ЮВ 3 4000 м ясно +32.5 +24.0 61 +44 +44 опасность
перегрева
989.7 983.4
00 10.07 ЮВ 6 4000 м ясно +29.0 +24.0 74 +40 +40 очень
душно
989.5 983.8
03 10.07 ЮВ 1 4000 м ясно +32.0 +24.2 63 +44 +50 опасность
перегрева
990.3 984.7 +28.0
06 10.07 ЮВ 1 4000 м ясно +40.0 +26.4 47 +56 +79 опасность
перегрева
990.8 984.7
09 10.07 штиль 0 4000 м ясно +42.5 +24.4 36 +53 +79 опасность
перегрева
989.9 983.8
12 10.07 ЮВ 2 4000 м ясно +45.0 +24.3 32 +56 +61 опасность
перегрева
987.8 982.5 +46.0
15 10.07 ЮВ 2 4000 м ясно +38.0 +25.6 49 +52 +52 опасность
перегрева
989.3 983.1
18 10.07 ЮВ 7 4000 м ясно +34.5 +24.7 57 +48 +48 опасность
перегрева
990.6 984.3
21 10.07 ЮВ 4 4000 м ясно +32.0 +25.0 67 +46 +46 опасность
перегрева
990.1 983.8
00 11.07 ЮВ 6 4000 м ясно +29.5 +23.8 71 +40 +40 очень
душно
990.2 984.5
03 11.07 ЮВ 4 4000 м ясно +32.5 +24.0 61 +44 +48 опасность
перегрева
991.0 985.4 +28.5
06 11.07 ЮВ 4 4000 м пыль ясно +40.5 +23.7 39 +51 +64 опасность
перегрева
991.6 985.5
09 11.07 З 2 4000 м ясно +45.5 +24.1 30 +55 +74 опасность
перегрева
990.7 984.7
12 11.07 ЮВ 6 4000 м ясно +43.0 +23.5 33 +52 +54 опасность
перегрева
989.2 983.8 +46.0
15 11.07 ЮВ 4 4000 м ясно +38.0 +24.0 45 +49 +49 опасность
перегрева
989.7 983.5
18 11.07 ЮВ 8 4000 м ясно +35.0 +24.5 55 +48 +48 опасность
перегрева
991.8 985.6
21 11.07 ЮВ 6 4000 м ясно +31.5 +24.4 66 +44 +44 опасность
перегрева
991.9 985.6
00 12.07 ЮВ 4 4000 м ясно +30.0 +24.3 72 +42 +42 опасность
перегрева
991.3 985.6
03 12.07 штиль 0 4000 м ясно +32.0 +25.0 67 +46 +53 опасность
перегрева
993.8 988.2 +29.0
06 12.07 Ю 1 4000 м ясно +37.0 +24.4 49 +49 +72 опасность
перегрева
994.6 988.4
09 12.07 ЮВ 1 4000 м ясно +42.0 +25.6 40 +55 +78 опасность
перегрева
993.3 987.2
12 12.07 З 2 4000 м ясно +42.5 +25.6 39 +56 +61 опасность
перегрева
992.3 986.9 +43.5
15 12.07 ЮВ 3 4000 м ясно +37.0 +25.2 51 +51 +51 опасность
перегрева
992.7 986.5
18 12.07 ЮВ 4 4000 м ясно +34.5 +24.7 57 +48 +48 опасность
перегрева
994.8 988.5
21 12.07 ЮВ 3 4000 м ясно +32.0 +25.0 67 +46 +46 опасность
перегрева
994.8 988.5
00 13.07 ЮВ 2 4000 м ясно +29.5 +23.8 71 +40 +40 очень
душно
994.2 988.5
03 13.07 ЮВ 3 4000 м ясно +31.5 +24.4 66 +44 +48 опасность
перегрева
994.7 989.1 +28.5
06 13.07 ЮВ 5 4000 м ясно +39.0 +25.2 46 +52 +62 опасность
перегрева
995.1 988.9
21 13.07 ЮВ 3 4000 м ясно +32.0 +25.0 67 +46 +46 опасность
перегрева
994.4 988.1
00 14.07 ЮВ 2 4000 м ясно +30.0 +24.3 72 +42 +42 опасность
перегрева
993.6 987.9
03 14.07 ЮВ 2 4000 м 5/0
[Ac trans]
+32.0 +25.0 67 +46 +49 опасность
перегрева
993.7 988.1 +29.0
06 14.07 ЮЗ 4 4000 м ясно +40.5 +22.8 37 +50 +62 опасность
перегрева
993.4 987.2
09 14.07 ЮВ 4 4000 м ясно +44.5 +22.8 30 +53 +66 опасность
перегрева
991.4 985.3
12 14.07 ЮВ 6 4000 м ясно +42.5 +22.8 33 +51 +53 опасность
перегрева
990.0 984.6 +45.0
18 14.07 ЮВ 4 4000 м ясно +35.0 +23.7 52 +46 +46 опасность
перегрева
991.1 984.9
21 14.07 ЮВ 5 4000 м ясно +32.5 +24.0 61 +44 +44 опасность
перегрева
991.2 984.9
00 15.07 ЮВ 3 4000 м ясно +30.5 +24.1 69 +42 +42 опасность
перегрева
990.1 984.4
03 15.07 ЮВ 2 4000 м ясно +32.5 +24.0 61 +44 +50 опасность
перегрева
990.3 984.7 +29.5
06 15.07 СЗ 1 4000 м ясно +39.0 +24.4 44 +51 +74 опасность
перегрева
991.3 985.1
09 15.07 СЗ 1 4000 м ясно +42.5 +25.6 39 +56 +78 опасность
перегрева
990.2 984.1
12 15.07 ЮВ 3 4000 м ясно +42.0 +23.9 36 +52 +56 опасность
перегрева
989.5 984.1 +43.5
15 15.07 ЮВ 3 4000 м ясно +37.5 +24.2 47 +49 +49 опасность
перегрева
984.6 978.4
18 15.07 ЮВ 3 4000 м 3/0
[Ac trans]
+34.0 +24.1 56 +46 +46 опасность
перегрева
991.0 984.7
21 15.07 ЮВ 4 4000 м 4/0
[Ac trans]
+32.0 +24.2 63 +44 +44 опасность
перегрева
990.8 984.5

 

Местоположение метеостанции Мохенджо-Даро (Пакистан): широта 27.32 долгота 68.13 высота над уровнем моря 57 м.

В архиве по умолчанию представлена погода в Мохенджо-Даро за последнюю неделю. Архивные данные за месяц целиком и за предыдущие месяцы, начиная с января 2011 года, Вы можете получить, выбрав интересующий диапазон дат из раскрывающегося списка и нажав кнопку "Ввод!".


*Определитесь, кто Вы:
робот инопланетянин человек

Внимание! Время в таблицах - всемирное. Для получения местного времени необходимо прибавить поправку, которая равна 5 ч.

Смотрите также архив погоды в соседних городах и на ближайших метеорологических станциях:

Погода в Ларкане (Пакистан) (26 км)
Погода в Пад Идан (Пакистан) (52 км)
Погода в Суккуре (Пакистан) (77 км)
Погода в Рохри (Пакистан) (85 км)
Погода в Джейкобабаде (Пакистан) (114 км)
Погода в Навабшахе (Пакистан) (121 км)
Погода в Даду (Пакистан) (152 км)
Погода в Хуздаре (Пакистан) (158 км)
Погода в Мир Пур Кхас (Пакистан) (217 км)
Погода в Хайдарабате (Пакистан) (218 км)

Пояснения к столбцам:

Ветер - указаны скорость ветра в м/с - средняя за 10 мин, порывы в срок и между сроками (в фигурных скобках) и направление, откуда дует ветер: С - северный, СВ - северо-восточный, В - восточный, ЮВ - юго-восточный, Ю - южный, ЮЗ - юго-западный, З - западный, СЗ - северо-западный.
Видимость - горизонтальная дальность видимости в метрах или километрах. При видимости от 1 до 10 км при отсутствии осадков обычно наблюдается дымка, при ухудшении видимости до 1 км и менее - туман. В сухую погоду видимость может ухудшаться дымом, пылью или мглою.
Явления - указаны атмосферные явления, наблюдавшиеся в срок или в последний час перед сроком; фигурными скобками обозначены явления, наблюдавшиеся между сроками (за 1-3 часа до срока); квадратными скобками обозначены град или гололедные отложения с указанием их диаметра в мм.
Облачность - указаны через наклонную черту общая и нижняя облачность в баллах и высота нижней границы облаков в метрах; квадратными скобками обозначены формы облаков: Ci - перистые, Cs - перисто-слоистые, Cc - перисто-кучевые, Ac - высококучевые, As - высокослоистые, Sc - слоисто-кучевые, Ns - слоисто-дождевые, Cu - кучевые, Cb - кучево-дождевые. Подробнее классификацию облаков см. в Атласе облаков (PDF).
T - Температура воздуха - температура, измеренная на высоте 2 м над землей.
Td - Температура точки росы - температура, при понижении до которой содержащийся в воздухе водяной пар достигнет насыщения.
f - Относительная влажность воздуха - влажноcть воздуха, измеренная на высоте 2 м над землей.
Te - Эффективная температура - температура, которую ощущает одетый по сезону человек в тени. Характеристика душности погоды. При расчете учитывается влияние влажности воздуха и скорости ветра на теплоощущения человека.
Tes - Эффективная температура на солнце - температура, которую ощущает человек, с поправкой на солнечный нагрев. Характеристика знойности погоды. Зависит от высоты солнца над горизонтом, облачности и скорости ветра. Ночью, в пасмурную погоду, а также при ветре 12 м/с и более поправка равна нулю.
P - Атмосферное давление - приведенное к уровню моря атмосферное давление.
Po - Атмосферное давление - измеренное на уровне метеостанции атмосферное давление.
Tmin - Минимальная температура - минимум температуры воздуха на высоте 2 м над землей.
Tmax - Максимальная температура - максимум температуры воздуха на высоте 2 м над землей.
R - Количество осадков - Количество выпавших осадков за период времени, мм. При наведении курсора мыши на число - период времени, за который выпало указанное количество осадков.
R24 - Количество осадков - Количество выпавших осадков за 24 часа, мм.
S - Снежный покров - Высота снежного покрова, см. При наведении курсора мыши на число - состояние снежного покрова и степень покрытия местности в баллах.